CW2969 Weather Reports


Display with metric or nautical units.
time (UTC)temp
F
wind
direction
speed
MPH
gust
MPH
rain 1hr
in
rain 24hr
in
rain mn
in
humidity
%
barometer
mb
20260505024514 76 156 2.0 9.0 0.00 0.00 0.00 74 1008.2
20260505024014 76 152 1.0 3.0 0.00 0.00 0.00 73 1008.2
20260505023514 76 142 1.0 5.0 0.00 0.00 0.00 73 1008.0
20260505023014 76 133 2.0 7.0 0.00 0.00 0.00 73 1008.0
20260505022514 76 269 2.0 7.0 0.00 0.00 0.00 73 1008.0
20260505022014 76 134 2.0 5.0 0.00 0.00 0.00 73 1008.0
20260505020514 77 213 2.0 8.0 0.00 0.00 0.00 71 1007.9
20260505020014 77 181 3.0 8.0 0.00 0.00 0.00 71 1007.8
20260505015514 77 159 2.0 5.0 0.00 0.00 0.00 71 1007.9
20260505015014 77 235 1.0 7.0 0.00 0.00 0.00 70 1007.7
20260505014514 77 134 4.0 7.0 0.00 0.00 0.00 70 1007.7
20260505013514 78 134 1.0 6.0 0.00 0.00 0.00 69 1007.8
20260505013013 78 135 5.0 6.0 0.00 0.00 0.00 68 1007.7
20260505012513 78 120 4.0 9.0 0.00 0.00 0.00 68 1007.7
20260505012013 78 146 3.0 9.0 0.00 0.00 0.00 68 1007.7
20260505011014 79 140 5.0 11.0 0.00 0.00 0.00 66 1007.5
20260505010014 79 234 1.0 6.0 0.00 0.00 0.00 65 1007.4
20260505005513 80 169 6.0 6.0 0.00 0.00 0.00 65 1007.4
20260505005013 80 175 2.0 6.0 0.00 0.00 0.00 64 1007.4
20260505004513 80 215 5.0 7.0 0.00 0.00 0.00 64 1007.4
20260505003513 81 121 4.0 7.0 0.00 0.00 0.00 62 1007.3
20260505003013 81 214 2.0 7.0 0.00 0.00 0.00 62 1007.3
20260505002513 81 291 7.0 11.0 0.00 0.00 0.00 62 1007.3
20260505002013 81 165 2.0 11.0 0.00 0.00 0.00 61 1007.2
20260505000513 82 311 1.0 11.0 0.00 0.00 0.00 60 1007.6
20260504235512 82 272 6.0 10.0 0.00 0.00 0.00 61 1007.5
20260504235012 82 125 8.0 10.0 0.00 0.00 0.00 61 1007.5
20260504234512 82 107 2.0 11.0 0.00 0.00 0.00 60 1007.6
20260504234013 82 145 3.0 11.0 0.00 0.00 0.00 60 1007.8
20260504232512 82 150 3.0 7.0 0.00 0.00 0.00 60 1007.8
20260504232012 82 250 2.0 7.0 0.00 0.00 0.00 60 1007.8
20260504231512 82 198 5.0 10.0 0.00 0.00 0.00 59 1007.8
20260504230512 82 70 2.0 11.0 0.00 0.00 0.00 59 1008.0
20260504230012 82 135 5.0 11.0 0.00 0.00 0.00 59 1008.1
20260504225512 83 297 5.0 11.0 0.00 0.00 0.00 59 1008.1
20260504225012 83 313 5.0 9.0 0.00 0.00 0.00 59 1008.1
20260504224512 83 215 5.0 7.0 0.00 0.00 0.00 59 1008.3
20260504224012 83 146 4.0 7.0 0.00 0.00 0.00 59 1008.2
20260504223512 83 113 2.0 4.0 0.00 0.00 0.00 59 1008.3
20260504223012 83 267 4.0 10.0 0.00 0.00 0.00 60 1008.4
20260504222512 83 233 7.0 10.0 0.00 0.00 0.00 59 1008.4
20260504221511 83 250 3.0 8.0 0.00 0.00 0.00 60 1008.5
20260504221012 83 213 3.0 9.0 0.00 0.00 0.00 60 1008.5
20260504220511 83 143 4.0 12.0 0.00 0.00 0.00 59 1008.5
20260504220012 83 115 3.0 12.0 0.00 0.00 0.00 60 1008.5
20260504215511 83 148 3.0 9.0 0.00 0.00 0.00 60 1008.7
20260504215011 83 288 4.0 6.0 0.00 0.00 0.00 61 1008.6
20260504214511 83 259 4.0 7.0 0.00 0.00 0.00 61 1008.7
20260504214011 82 209 5.0 7.0 0.00 0.00 0.00 60 1008.5
20260504213011 83 186 3.0 6.0 0.00 0.00 0.00 60 1008.9
20260504212511 83 265 2.0 8.0 0.00 0.00 0.00 60 1009.0
20260504212011 83 136 1.0 8.0 0.00 0.00 0.00 60 1009.0
20260504211511 83 176 2.0 8.0 0.00 0.00 0.00 60 1009.1
20260504211011 83 111 6.0 10.0 0.00 0.00 0.00 60 1009.2
20260504210011 83 115 7.0 9.0 0.00 0.00 0.00 59 1009.2
20260504205511 84 166 9.0 11.0 0.00 0.00 0.00 60 1009.4
20260504205010 83 126 11.0 11.0 0.00 0.00 0.00 60 1009.4
20260504204511 83 125 8.0 11.0 0.00 0.00 0.00 60 1009.4
20260504204010 84 131 2.0 11.0 0.00 0.00 0.00 59 1009.6
20260504203510 84 198 1.0 7.0 0.00 0.00 0.00 60 1009.7
20260504203010 84 108 3.0 7.0 0.00 0.00 0.00 61 1009.9
20260504202510 83 194 2.0 6.0 0.00 0.00 0.00 61 1010.0
20260504202010 83 291 4.0 8.0 0.00 0.00 0.00 61 1010.1
20260504201510 83 232 4.0 12.0 0.00 0.00 0.00 60 1010.1
20260504201010 83 231 8.0 12.0 0.00 0.00 0.00 61 1010.3
20260504200510 83 131 4.0 10.0 0.00 0.00 0.00 60 1010.3
20260504200010 83 238 2.0 8.0 0.00 0.00 0.00 61 1010.3
20260504195010 82 188 3.0 11.0 0.00 0.00 0.00 62 1010.6
20260504194509 82 266 2.0 9.0 0.00 0.00 0.00 61 1010.7
20260504194010 82 141 5.0 9.0 0.00 0.00 0.00 61 1010.8
20260504193509 81 123 3.0 10.0 0.00 0.00 0.00 62 1010.8
20260504193009 81 221 3.0 14.0 0.00 0.00 0.00 62 1010.8
20260504192510 81 227 4.0 14.0 0.00 0.00 0.00 62 1010.9
20260504191509 81 210 3.0 17.0 0.00 0.00 0.00 62 1011.2
20260504191009 81 216 2.0 10.0 0.00 0.00 0.00 63 1011.2
20260504190510 81 245 7.0 10.0 0.00 0.00 0.00 63 1011.1
20260504190009 81 211 2.0 8.0 0.00 0.00 0.00 63 1011.2
20260504185511 80 34 1.0 11.0 0.00 0.00 0.00 64 1011.2
20260504185009 80 264 2.0 11.0 0.00 0.00 0.00 64 1011.2
20260504184509 80 275 7.0 14.0 0.00 0.00 0.00 64 1011.4
20260504184009 80 269 8.0 14.0 0.00 0.00 0.00 64 1011.5
20260504183509 80 167 4.0 11.0 0.00 0.00 0.00 65 1011.6
20260504183009 80 290 5.0 14.0 0.00 0.00 0.00 64 1011.8
20260504182509 79 205 5.0 14.0 0.00 0.00 0.00 66 1011.8
20260504182009 79 163 2.0 9.0 0.00 0.00 0.00 66 1011.9
20260504181509 79 260 4.0 10.0 0.00 0.00 0.00 66 1012.0
20260504181008 78 198 1.0 10.0 0.00 0.00 0.00 66 1011.9
20260504180509 78 229 3.0 10.0 0.00 0.00 0.00 66 1011.9
20260504180008 78 212 3.0 10.0 0.00 0.00 0.00 67 1012.0
20260504175509 78 46 3.0 9.0 0.00 0.00 0.00 68 1012.2
20260504174510 77 300 2.0 7.0 0.00 0.00 0.00 68 1012.3
20260504174008 76 198 1.0 7.0 0.00 0.00 0.00 70 1012.7
20260504173508 76 271 3.0 7.0 0.00 0.00 0.00 70 1012.8
20260504172512 76 138 4.0 6.0 0.00 0.00 0.00 70 1012.9
20260504172008 76 232 3.0 9.0 0.00 0.00 0.00 70 1012.9
20260504171508 76 269 3.0 18.0 0.00 0.00 0.00 70 1013.0
20260504171008 76 176 3.0 18.0 0.00 0.00 0.00 71 1013.0
20260504170508 75 182 6.0 14.0 0.00 0.00 0.00 72 1013.1
20260504151007 71 190 2.0 8.0 0.00 0.00 0.00 75 1013.8
20260504150507 71 134 7.0 8.0 0.00 0.00 0.00 75 1014.0
20260504140506 68 129 3.0 6.0 0.00 0.00 0.00 76 1014.1
20260504081533 63 156 3.0 3.0 0.00 0.00 0.00 74 1014.5
20260504081032 63 236 1.0 3.0 0.00 0.00 0.00 74 1014.6
20260504080533 63 120 0.0 4.0 0.00 0.00 0.00 73 1014.6
20260504050531 66 259 2.0 3.0 0.00 0.00 0.00 64 1016.7
20260504045531 66 197 2.0 4.0 0.00 0.00 0.00 63 1016.6
20260504045031 66 136 2.0 4.0 0.00 0.00 0.00 63 1016.6
20260504044531 66 221 1.0 5.0 0.00 0.00 0.00 62 1016.6
20260504044031 67 195 2.0 5.0 0.00 0.00 0.00 62 1016.7
20260504043531 67 136 3.0 3.0 0.00 0.00 0.00 62 1016.6
20260504043031 67 215 1.0 3.0 0.00 0.00 0.00 61 1016.6
20260504042531 67 138 1.0 2.0 0.00 0.00 0.00 61 1016.7
20260504042031 67 107 2.0 2.0 0.00 0.00 0.00 61 1016.8
20260504041531 67 140 2.0 4.0 0.00 0.00 0.00 60 1016.8
20260504041031 67 134 2.0 4.0 0.00 0.00 0.00 60 1016.7
20260504040530 67 170 0.0 4.0 0.00 0.00 0.00 59 1016.8
20260504040031 67 146 3.0 4.0 0.00 0.00 0.00 59 1016.8
20260504035530 67 216 3.0 4.0 0.00 0.00 0.00 58 1016.8
20260504035030 67 237 2.0 5.0 0.00 0.00 0.00 58 1016.8
20260504034530 67 153 2.0 5.0 0.00 0.00 0.00 58 1016.7
20260504034030 67 154 1.0 4.0 0.00 0.00 0.00 57 1016.7
20260504033030 66 205 1.0 8.0 0.00 0.00 0.00 57 1016.6
20260504032530 66 132 2.0 8.0 0.00 0.00 0.00 57 1016.6
20260504032030 66 134 3.0 3.0 0.00 0.00 0.00 56 1016.7
20260504031530 66 109 0.0 0.0 0.00 0.00 0.00 56 1016.6
20260504031030 66 109 0.0 0.0 0.00 0.00 0.00 55 1016.6
20260504030530 66 176 0.0 2.0 0.00 0.00 0.00 55 1016.5
20260504030030 67 169 1.0 2.0 0.00 0.00 0.00 54 1016.5
20260504025529 67 169 0.0 0.0 0.00 0.00 0.00 53 1016.3
20260504025030 67 169 0.0 0.0 0.00 0.00 0.00 52 1016.2